Kuantan, Malaysia

6:31 AM +08 on November 22, 2019 (GMT +0800)
Kuantan

Weather History for WMKD - August, 2019

Change the Weather History Date:

Thursday, August 1, 2019

  Actual Average (WUND) Record (WUND)
Temperature  
Mean Temperature 84 °F -  
Max Temperature 94 °F 90 °F - (-1)
Min Temperature 75 °F 72 °F - (-1)
Cooling Degree Days 20    
Growing Degree Days 34 (Base 50)    
Moisture  
Dew Point 75 °F    
Average Humidity 73    
Maximum Humidity 94    
Minimum Humidity 47    
Precipitation  
Precipitation 0.00 in 0.23 in - ()
Sea Level Pressure  
Sea Level Pressure 29.83 in    
Wind  
Wind Speed 3 mph ()    
Max Wind Speed 13 mph    
Max Gust Speed 21 mph    
Visibility 6.6 miles    
Events      
Averages and records for this station are not official NWS values.
T = Trace of Precipitation, MM = Missing Value Source: Averaged Metar Reports

Daily Weather History Graph

Daily Weather History Graph

Search for Another Location

Airport or City:

Astronomy

Aug. 01, 2019 Rise Set
Actual Time 7:05 AM +08 7:21 PM +08
Civil Twilight 6:43 AM +08 7:43 PM +08
Nautical Twilight 6:17 AM +08 8:09 PM +08
Astronomical Twilight 5:52 AM +08 8:34 PM +08
Moon 7:00 AM +08 (8/1) 7:40 PM +08 (8/1)
Length of Visible Light 13h 00m
Length of Day
12h 16m
New Moon, 0% of the Moon is Illuminated
Aug 1
New Moon
Aug 8
First Quarter
Aug 15
Full
Aug 23
Last Quarter
Aug 30
New

Hourly Weather History & Observations

Time (+08) Temp. Heat Index Dew Point Humidity Pressure Visibility Wind Dir Wind Speed Gust Speed Precip Events Conditions
12:00 AM 78.8 °F - 77.0 °F 94% 29.86 in 5.6 mi Calm Calm - N/A   Mostly Cloudy
1:00 AM 78.8 °F - 73.4 °F 83% 29.86 in 5.6 mi Variable 2.3 mph - N/A   Mostly Cloudy
2:00 AM 78.8 °F - 75.2 °F 89% 29.83 in 5.6 mi Calm Calm - N/A   Mostly Cloudy
3:00 AM 77.0 °F - 73.4 °F 89% 29.83 in 5.6 mi SW 3.5 mph - N/A   Mostly Cloudy
4:00 AM 77.0 °F - 73.4 °F 89% 29.80 in 6.2 mi Variable 1.2 mph - N/A   Mostly Cloudy
5:00 AM 77.0 °F - 73.4 °F 89% 29.83 in 6.2 mi Calm Calm - N/A   Mostly Cloudy
6:00 AM 75.2 °F - 71.6 °F 89% 29.83 in 5.6 mi Calm Calm - N/A   Mostly Cloudy
7:00 AM 75.2 °F - 71.6 °F 89% 29.83 in 6.2 mi Calm Calm - N/A   Mostly Cloudy
8:00 AM 75 °F - 72 °F 87% 29.87 in 11 mi Calm Calm - -   Haze
9:00 AM 80.6 °F 84.6 °F 71.6 °F 74% 29.89 in 6.2 mi Calm Calm - N/A   Mostly Cloudy
10:00 AM 84.2 °F 90.9 °F 73.4 °F 70% 29.89 in 6.2 mi Variable 5.8 mph - N/A   Mostly Cloudy
11:00 AM 86 °F - 74 °F 60% 29.90 in 11 mi SSW 8.1 mph - -   Haze
11:00 AM 86.0 °F 93.4 °F 73.4 °F 66% 29.89 in 6.2 mi Variable 8.1 mph - N/A   Mostly Cloudy
12:00 PM 89.6 °F 99.8 °F 75.2 °F 62% 29.89 in 6.2 mi Variable 9.2 mph - N/A   Mostly Cloudy
1:00 PM 91.4 °F 100.1 °F 73.4 °F 55% 29.86 in 6.2 mi SW 12.7 mph - N/A   Mostly Cloudy
2:00 PM 93 °F - 75 °F 48% 29.82 in 9 mi South 8.1 mph - -   Haze
2:00 PM 93.2 °F 105.0 °F 75.2 °F 56% 29.80 in 6.2 mi Variable 8.1 mph - N/A   Mostly Cloudy
3:00 PM 93.2 °F 105.0 °F 75.2 °F 56% 29.77 in 6.2 mi Variable 8.1 mph 20.7 mph N/A   Mostly Cloudy
4:00 PM 95.0 °F 104.5 °F 73.4 °F 49% 29.77 in 6.2 mi Variable 10.4 mph - N/A   Mostly Cloudy
5:00 PM 94 °F - 76 °F 47% 29.77 in 9 mi South 4.6 mph - -   Haze
5:00 PM 93.2 °F 105.0 °F 75.2 °F 56% 29.77 in 6.2 mi Variable 4.6 mph - N/A   Mostly Cloudy
6:00 PM 91.4 °F 102.5 °F 75.2 °F 59% 29.77 in 6.2 mi Variable 2.3 mph - N/A   Mostly Cloudy
7:00 PM 86.0 °F 99.3 °F 78.8 °F 79% 29.77 in 6.2 mi Variable 3.5 mph - N/A   Mostly Cloudy
8:00 PM 85 °F - 78 °F 73% 29.81 in 6 mi Calm Calm - -   Scattered Clouds
8:00 PM 84.2 °F 94.1 °F 77.0 °F 79% 29.80 in 6.2 mi Calm Calm - N/A   Mostly Cloudy
9:00 PM 84.2 °F 96.1 °F 78.8 °F 84% 29.83 in 6.2 mi Calm Calm - N/A   Mostly Cloudy
10:00 PM 82.4 °F 90.9 °F 77.0 °F 84% 29.86 in 6.2 mi Calm Calm - N/A   Mostly Cloudy
11:00 PM 81 °F - 77 °F 83% 29.87 in 6 mi WSW 3.5 mph - -   Haze
11:00 PM 80.6 °F 87.1 °F 77.0 °F 89% 29.86 in 6.2 mi Variable 3.5 mph - N/A   Mostly Cloudy